Yaogan 33-01

operational
NORAD ID: 47302 Int'l Des: 2020-103 Owner: ZLZB Country: CN Constellation: yaogan
LEOCIRCULARRETROGRADESSO

Yaogan 33-01について

説明を読み込み中...

リアルタイム位置

3D地球を読み込み中...

次回通過

高度履歴

Altitude vs Time

uPlot chart will show altitude changes over time

軌道要素

1 47302U 20103A 26062.53429087 .00000635 00000-0 14522-3 0 9997
2 47302 98.0570 307.3913 0004196 99.5091 260.6583 14.58826079275909
Epoch: Mar 3, 2026 • Age: 18 hours

現在のステータス

高度 706.7 km
速度 7.51 km/s
衛星直下点 72.29°N, 151.57°W
打ち上げ日 Dec 27, 2020
運用期間 5.1 years
タイプ military

技術仕様

分類 Payload
質量 1040.00 kg
乾燥質量 1040.00 kg
総質量 1040.00 kg
長さ 1.50 m
直径 1.50 m
スパン 5.00 m
形状 Box + 2 Pan
製造者 SAST
バスタイプ JB-9
フェーズステータス In Orbit
所有者/国 ZLZB/CN

大規模コンステレーション

Loading constellations...